Waarnemingen

Advertentie
Mijn weer
Barth, Duitsland (10180): temperatuur & dauwpunt: 22.04.2017 02:00:00 - 28.04.2017 02:00:00 (CEST)Barth, Duitsland (10180): temperatuur 5cm & temperatuur -5cm: 22.04.2017 02:00:00 - 28.04.2017 02:00:00 (CEST)Barth, Duitsland (10180): temperatuur -20cm & temperatuur -100cm: 22.04.2017 02:00:00 - 28.04.2017 02:00:00 (CEST)Barth, Duitsland (10180): windsnelheid & windstoten: 22.04.2017 02:00:00 - 28.04.2017 02:00:00 (CEST)Barth, Duitsland (10180): windrichting: 22.04.2017 02:00:00 - 28.04.2017 02:00:00 (CEST)Barth, Duitsland (10180): luchtdruk: 22.04.2017 02:00:00 - 28.04.2017 02:00:00 (CEST)Barth, Duitsland (10180): zicht: 22.04.2017 02:00:00 - 28.04.2017 02:00:00 (CEST)Barth, Duitsland (10180): Zonneschijnduur: 22.04.2017 02:00:00 - 28.04.2017 02:00:00 (CEST)Barth, Duitsland (10180): neerslag: 22.04.2017 02:00:00 - 28.04.2017 02:00:00 (CEST)
Datum & Tijd tt [°C] td [°C] tt 5cm [°C] tt -5cm [°C] tt -20cm [°C] tt -100cm [°C] ff [km/u] ff [kn] fx [km/u] fx [kn] dd ppp [hPa] vv [km] sd [min] rr [mm]
28.04.2017 02:00:00 3,2 0,0 1,5 3,8 7,4 7,3 8 4 15 8 ZZO 1013,8 45 0 0,0
28.04.2017 01:00:00 2,5 -0,4 -0,9 3,6 7,8 7,3 9 5 12 7 ZZO 1014,0 43 0 0,0
28.04.2017 00:00:00 3,6 0,2 -0,6 4,3 8,3 7,3 10 6 13 7 ZZO 1014,2 51 0 0,0
27.04.2017 23:00:00 1,4 -0,5 -1,4 5,3 8,7 7,3 6 3 9 5 ZZO 1014,3 36 0 0,0
27.04.2017 22:00:00 2,6 0,4 0,7 6,7 9,1 7,3 6 4 8 4 Z 1014,3 45 0 0,0
27.04.2017 21:00:00 5,1 0,7 1,7 8,1 9,5 7,3 4 2 12 7 ZW 1014,1 70 5 0,0
27.04.2017 20:00:00 6,6 -0,7 4,3 9,5 9,7 7,3 9 5 23 12 WZW 1013,9 70 28 0,0
27.04.2017 19:00:00 8,7 -0,3 9,5 11,4 9,7 7,3 16 8 22 12 WZW 1013,8 54 49 0,0
27.04.2017 18:00:00 8,7 0,7 11,5 13,4 9,6 7,3 14 8 27 15 Z 1013,8 32 35 0,0
27.04.2017 17:00:00 9,2 -0,4 10,0 14,3 9,2 7,3 21 11 34 18 WZW 1013,8 34 55 0,0
27.04.2017 16:00:00 9,9 -1,6 13,9 15,3 8,7 7,3 17 9 36 19 WZW 1013,6 26 58 0,0
27.04.2017 15:00:00 10,2 -1,8 14,4 15,2 8,1 7,3 20 11 37 20 W 1013,6 41 60 0,0
27.04.2017 14:00:00 9,2 -2,5 13,9 14,8 7,3 7,3 22 12 37 20 WNW 1013,8 19 60 0,0
27.04.2017 13:00:00 9,0 -1,1 13,1 14,1 6,5 7,3 21 12 37 20 W 1013,8 19 59 0,0
27.04.2017 12:00:00 8,6 -2,5 11,7 11,9 5,9 7,3 26 14 44 24 W 1013,8 18 57 0,0
27.04.2017 11:00:00 8,0 -0,4 9,0 9,4 5,3 7,3 20 11 36 20 W 1013,7 45 17 0,0
27.04.2017 10:00:00 6,4 -0,2 6,7 8,1 4,8 7,3 18 10 27 14 WNW 1013,2 70 46 0,0
27.04.2017 09:00:00 6,4 3,5 8,6 6,2 4,5 7,3 13 7 19 10 ZW 1013,1 15 55 0,0
27.04.2017 08:00:00 4,1 2,5 4,5 0,7 4,6 7,3 11 6 16 9 ZW 1012,9 10 60 0,0
27.04.2017 07:00:00 1,1 0,3 -0,1 0,6 4,8 7,3 7 4 9 5 Z 1012,7 5 42 0,0
27.04.2017 06:00:00 -2,0 -2,4 -5,1 0,6 5,1 7,3 4 2 9 5 ZZW 1012,5 4,0 0 0,0
27.04.2017 05:00:00 -0,1 -0,5 -3,8 0,7 5,4 7,3 7 4 10 5 Z 1012,5 6 0 0,0
27.04.2017 04:00:00 -1,4 -1,8 -5,0 0,9 5,8 7,3 4 2 6 4 ZW 1012,6 5 0 0,0
27.04.2017 03:00:00 -0,9 -1,5 -4,9 1,0 6,2 7,3 6 3 9 5 ZZW 1012,6 10 0 0,0
27.04.2017 02:00:00 -0,8 -1,6 -4,6 1,3 6,7 7,3 4 2 8 4 ZZW 1012,7 14 0 0,0
27.04.2017 01:00:00 0,4 -0,1 -4,1 2,0 7,2 7,3 3 2 9 5 Z 1012,7 17 0 0,0
27.04.2017 00:00:00 0,2 -0,5 -4,1 2,8 7,7 7,3 3 2 5 3 Z 1012,9 16 0 0,0
26.04.2017 23:00:00 1,0 -0,2 -3,1 3,8 8,2 7,3 4 2 9 5 ZZW 1012,8 - 0 0,0
26.04.2017 22:00:00 1,9 -0,3 -1,5 5,1 8,7 7,3 8 5 12 6 W 1012,7 - 0 0,0
26.04.2017 21:00:00 3,9 0,3 0,9 6,6 9,1 7,3 9 5 14 8 WNW 1012,3 - 27 0,0
26.04.2017 20:00:00 6,5 0,5 5,8 8,4 9,3 7,3 13 7 22 12 WNW 1012,0 - 60 0,0
26.04.2017 19:00:00 7,9 0,4 8,9 10,6 9,4 7,3 14 8 29 16 WNW 1011,7 - 60 0,0
26.04.2017 18:00:00 8,3 -1,2 9,9 12,2 9,3 7,3 21 12 34 18 W 1011,7 - 60 0,0
26.04.2017 17:00:00 9,0 -2,0 11,2 13,6 8,9 7,3 19 11 29 16 W 1011,4 - 60 0,0
26.04.2017 16:00:00 9,3 0,1 12,7 14,8 8,3 7,3 18 10 27 15 WNW 1011,4 - 60 0,0
26.04.2017 15:00:00 9,2 -0,4 13,2 14,8 7,5 7,3 14 7 29 16 W 1011,1 - 59 0,0
26.04.2017 14:00:00 8,4 0,5 13,2 13,7 6,8 7,3 18 10 29 16 WNW 1011,2 - 51 0,0
26.04.2017 13:00:00 8,4 1,0 13,7 12,9 6,1 7,3 19 11 30 16 WNW 1010,8 40 39 0,0
26.04.2017 12:00:00 7,4 0,5 10,6 9,5 5,7 7,3 16 9 26 14 WNW 1010,8 70 20 0,0
26.04.2017 11:00:00 6,8 0,0 8,5 8,6 5,2 7,3 14 8 25 14 W 1010,2 70 23 0,0
26.04.2017 10:00:00 6,2 1,2 8,1 8,3 4,7 7,3 12 6 17 9 W 1009,9 66 34 0,0
26.04.2017 09:00:00 4,8 2,4 6,1 4,5 4,5 7,3 4 2 14 8 W 1009,7 27 11 0,0
26.04.2017 08:00:00 3,2 1,3 3,1 2,9 4,6 7,3 10 6 17 9 WZW 1009,1 18 13 0,0
26.04.2017 07:00:00 1,3 -0,7 0,5 1,6 4,7 7,3 9 5 14 8 ZW 1008,9 23 24 0,0
26.04.2017 06:00:00 0,9 -1,0 -0,5 1,4 4,8 7,3 13 7 18 10 ZW 1008,4 39 0 0,0
26.04.2017 05:00:00 2,2 -0,2 1,5 1,6 5,0 7,3 16 9 19 11 ZZW 1007,9 44 0 0,0
26.04.2017 04:00:00 0,6 -1,0 -1,1 1,1 5,3 7,3 9 5 21 12 WZW 1007,5 37 0 0,0
26.04.2017 03:00:00 0,2 -1,6 -1,8 1,0 5,7 7,3 11 6 16 9 ZZW 1007,4 41 0 0,0
26.04.2017 02:00:00 0,8 -1,4 -1,3 1,6 6,0 7,3 13 7 25 14 ZW 1007,2 44 0 0,0
26.04.2017 01:00:00 3,9 -1,0 2,0 2,3 6,4 7,3 18 10 34 19 W 1007,0 69 0 0,0
26.04.2017 00:00:00 2,8 -0,4 0,9 2,8 6,8 7,3 13 7 20 11 WZW 1006,8 56 0 0,0
25.04.2017 23:00:00 3,2 -0,7 1,3 3,4 7,2 7,3 16 8 42 23 ZW 1006,5 58 0 0,0
25.04.2017 22:00:00 3,8 -0,6 2,1 4,4 7,5 7,3 12 6 29 16 WZW 1006,4 60 0 0,0
25.04.2017 21:00:00 5,2 0,0 4,5 5,0 7,9 7,3 21 12 37 20 W 1006,1 70 21 0,0
25.04.2017 20:00:00 5,7 0,2 4,9 6,7 8,1 7,3 16 9 32 17 W 1005,5 59 60 0,0
25.04.2017 19:00:00 6,1 0,9 6,8 8,5 8,1 7,3 23 12 42 23 W 1005,1 29 60 0,0
25.04.2017 18:00:00 6,0 0,2 7,5 9,9 8,0 7,3 28 15 39 21 W 1004,7 17 55 0,0
25.04.2017 17:00:00 6,2 0,2 8,9 10,9 7,7 7,3 19 10 25 14 WNW 1004,0 59 32 0,0
25.04.2017 16:00:00 5,2 0,9 9,4 10,5 7,6 7,3 13 7 23 12 WNW 1003,4 51 10 0,0
25.04.2017 15:00:00 4,4 1,7 6,3 10,6 7,4 7,3 12 6 16 9 WNW 1003,2 52 0 0,0
25.04.2017 14:00:00 3,5 2,2 5,8 9,0 7,3 7,3 11 6 18 10 W 1002,9 16 0 0,7
25.04.2017 13:00:00 3,4 0,4 3,7 8,6 7,1 7,3 14 8 24 13 W 1002,7 - 0 0,1
25.04.2017 12:00:00 6,3 -1,5 8,7 11,4 6,6 7,3 5 3 17 9 ONO 1001,7 - 11 0,0
25.04.2017 11:00:00 6,8 -1,6 10,5 11,7 6,0 7,3 3 2 18 10 ZW 1001,7 - 33 0,0
25.04.2017 10:00:00 5,3 -0,5 6,7 9,2 5,6 7,3 9 5 18 10 ZW 1002,0 - 36 0,0
25.04.2017 09:00:00 4,6 1,5 7,4 7,2 5,4 7,3 10 5 13 7 ZW 1002,0 - 53 0,0
25.04.2017 08:00:00 3,1 1,6 3,9 4,1 5,4 7,3 6 3 10 6 ZZW 1002,0 - 4 0,0
25.04.2017 07:00:00 2,6 1,6 2,4 3,7 5,5 7,3 6 3 11 6 ZZW 1002,0 - 0 0,0
25.04.2017 06:00:00 2,7 1,3 2,0 3,7 5,7 7,3 8 4 14 8 ZZW 1002,4 - 0 0,0
25.04.2017 05:00:00 3,1 1,3 2,5 3,9 5,8 7,3 9 5 16 9 ZZW 1002,7 - 0 0,0
25.04.2017 04:00:00 3,7 0,6 2,7 4,0 5,9 7,3 11 6 17 9 ZW 1003,3 - 0 0,1
25.04.2017 03:00:00 4,4 -1,9 3,5 4,2 6,0 7,4 9 5 13 7 WZW 1003,7 - 0 0,0
25.04.2017 02:00:00 4,5 -0,6 3,7 4,3 6,2 7,4 9 5 12 6 WZW 1004,7 - 0 0,0
25.04.2017 01:00:00 4,9 -0,6 3,7 4,4 6,3 7,4 9 5 15 8 WNW 1004,9 - 0 0,0
25.04.2017 00:00:00 5,5 1,0 4,5 4,5 6,5 7,4 10 5 21 12 W 1005,3 - 0 0,0
24.04.2017 23:00:00 5,9 0,6 4,7 4,9 6,7 7,4 14 7 26 14 W 1006,0 - 0 0,0
24.04.2017 22:00:00 6,3 1,0 5,2 5,2 6,9 7,4 17 9 34 19 W 1006,1 - 0 0,0
24.04.2017 21:00:00 6,3 2,1 5,2 5,8 7,1 7,4 20 11 34 19 W 1006,0 - 0 0,0
24.04.2017 20:00:00 7,0 3,8 6,2 7,1 7,1 7,4 24 13 45 24 W 1005,9 - 0 0,0
24.04.2017 19:00:00 7,7 5,5 7,3 7,8 7,1 7,4 24 13 51 27 W 1005,8 - 0 0,9
24.04.2017 18:00:00 8,1 6,0 7,2 8,0 7,0 7,4 36 19 55 30 WZW 1005,9 - 0 0,4
24.04.2017 17:00:00 10,1 4,7 9,6 8,5 6,9 7,4 29 16 51 27 WZW 1005,9 - 0 0,0
24.04.2017 16:00:00 10,7 3,5 10,2 8,7 6,7 7,4 27 15 57 31 WZW 1006,1 - 0 0,0
24.04.2017 15:00:00 10,4 3,1 10,2 9,4 6,4 7,4 33 18 53 29 ZW 1006,9 - 2 0,0
24.04.2017 14:00:00 10,3 3,1 11,9 10,0 6,0 7,4 32 18 57 31 ZW 1007,7 - 7 0,0
24.04.2017 13:00:00 8,8 2,7 9,5 8,2 5,8 7,4 31 17 50 27 ZW 1008,6 - 0 0,0
24.04.2017 12:00:00 7,2 2,1 7,7 6,7 5,6 7,4 31 17 48 26 ZZW 1009,6 - 0 0,0
24.04.2017 11:00:00 6,4 2,2 7,7 5,9 5,5 7,4 27 15 42 23 ZZW 1010,4 - 0 0,0
24.04.2017 10:00:00 6,5 1,6 6,4 6,2 5,3 7,4 30 16 43 23 ZZW 1011,5 - 0 0,0
24.04.2017 09:00:00 5,2 2,2 5,2 5,0 5,2 7,4 24 13 34 19 ZZW 1012,7 - 0 0,0
24.04.2017 08:00:00 4,3 2,3 4,0 4,3 5,2 7,4 19 10 28 15 ZZW 1013,8 - 0 0,0
24.04.2017 07:00:00 3,9 2,1 3,6 3,8 5,2 7,4 16 9 23 13 ZW 1014,5 - 0 0,0
24.04.2017 06:00:00 3,7 2,0 3,0 3,6 5,3 7,4 16 8 28 15 ZW 1015,2 - 0 0,0
24.04.2017 05:00:00 4,2 2,3 3,5 3,6 5,3 7,4 18 10 29 16 ZW 1015,9 - 0 0,0
24.04.2017 04:00:00 5,2 2,5 4,5 3,3 5,4 7,4 16 8 28 15 WZW 1016,3 - 0 0,0
24.04.2017 03:00:00 4,6 1,5 3,5 2,3 5,6 7,4 14 7 29 16 W 1016,8 - 0 0,0
24.04.2017 02:00:00 4,2 0,5 2,0 2,1 5,9 7,4 14 7 29 16 W 1017,3 - 0 0,0
24.04.2017 01:00:00 4,2 -0,8 2,0 2,5 6,2 7,4 16 9 32 17 WNW 1017,9 - 0 0,0
24.04.2017 00:00:00 4,9 -0,1 2,9 3,0 6,5 7,4 16 9 36 20 WNW 1017,9 - 0 0,0
23.04.2017 23:00:00 5,2 0,2 3,4 3,6 6,7 7,4 22 12 39 21 WNW 1017,8 - 0 0,0
23.04.2017 22:00:00 6,0 0,5 4,4 4,3 7,0 7,4 22 12 40 22 WNW 1017,5 - 0 0,0
23.04.2017 21:00:00 6,8 0,0 5,9 4,9 7,3 7,4 23 12 44 24 WNW 1017,0 - 1 0,0
23.04.2017 20:00:00 6,7 0,1 5,6 5,7 7,5 7,4 29 16 50 27 WNW 1016,7 - 57 0,0
23.04.2017 19:00:00 7,7 0,6 8,2 6,8 7,7 7,4 29 15 57 31 W 1016,4 - 8 0,0
23.04.2017 18:00:00 6,9 -0,2 6,7 7,5 7,8 7,4 34 19 57 31 W 1016,3 - 25 0,0
23.04.2017 17:00:00 7,5 0,5 7,5 8,8 7,7 7,4 35 19 56 31 W 1016,1 - 16 0,0
23.04.2017 16:00:00 7,6 0,4 8,2 9,5 7,5 7,4 39 21 57 31 WNW 1016,0 - 15 0,0
23.04.2017 15:00:00 8,0 0,8 9,7 10,6 7,2 7,4 35 19 51 28 W 1016,0 - 25 0,0
23.04.2017 14:00:00 6,9 1,3 8,7 9,9 6,8 7,4 31 17 56 30 W 1016,3 - 22 0,0
23.04.2017 13:00:00 7,1 2,0 8,0 10,4 6,4 7,4 36 19 54 29 W 1016,2 - 35 0,0
23.04.2017 12:00:00 6,9 -0,3 7,4 7,9 6,1 7,4 29 16 44 24 WNW 1016,4 - 10 0,0
23.04.2017 11:00:00 6,9 1,2 8,4 7,5 5,8 7,4 28 15 45 24 WNW 1016,5 - 2 0,0
23.04.2017 10:00:00 6,2 1,0 7,0 6,9 5,6 7,4 24 13 40 21 WNW 1016,2 - 3 0,0
23.04.2017 09:00:00 5,6 1,6 5,9 5,5 5,5 7,4 26 14 42 23 WNW 1016,0 - 0 0,0
23.04.2017 08:00:00 5,4 2,3 5,7 4,9 5,5 7,4 21 12 39 21 WNW 1015,7 - 0 0,0
23.04.2017 07:00:00 4,9 1,9 4,7 4,1 5,5 7,4 25 14 41 22 WNW 1015,4 - 0 0,0
23.04.2017 06:00:00 4,8 2,2 4,3 3,8 5,5 7,4 22 12 37 20 WNW 1015,1 - 0 0,0
23.04.2017 05:00:00 5,0 2,4 4,5 3,5 5,6 7,4 22 12 33 18 WNW 1015,1 - 0 0,0
23.04.2017 04:00:00 4,3 2,2 2,9 2,5 5,9 7,4 17 9 26 14 WNW 1014,9 - 0 0,0
23.04.2017 03:00:00 4,2 2,0 2,5 2,9 6,1 7,4 16 8 27 14 WNW 1014,9 - 0 0,0
23.04.2017 02:00:00 4,8 2,1 3,2 3,3 6,3 7,4 19 10 31 17 WNW 1015,0 - 0 0,0
23.04.2017 01:00:00 5,3 2,3 3,5 3,6 6,6 7,4 16 9 32 17 WNW 1015,0 - 0 0,0
23.04.2017 00:00:00 5,9 2,7 4,4 4,0 6,8 7,4 22 12 38 21 W 1014,8 - 0 0,0
22.04.2017 23:00:00 5,6 0,8 3,7 4,2 7,1 7,4 19 10 32 18 WNW 1014,7 70 0 0,0
22.04.2017 22:00:00 6,9 2,0 5,7 5,2 7,4 7,4 16 9 26 14 NW 1014,5 44 0 0,0
22.04.2017 21:00:00 4,7 1,7 3,4 5,3 7,7 7,4 16 8 32 17 W 1014,1 61 0 0,0
22.04.2017 20:00:00 6,8 4,5 6,0 6,7 7,8 7,4 19 10 39 21 WNW 1013,8 24 29 0,0
22.04.2017 19:00:00 7,2 4,7 7,0 7,4 8,0 7,4 22 12 35 19 W 1013,8 29 10 0,4
22.04.2017 18:00:00 6,1 4,3 5,4 7,7 8,0 7,4 29 16 61 33 WNW 1014,2 6 2 2,0
22.04.2017 17:00:00 9,1 4,0 10,7 10,6 7,8 7,4 32 18 51 28 W 1013,9 33 31 0,0
22.04.2017 16:00:00 9,5 3,8 11,4 11,1 7,3 7,4 28 15 54 29 W 1014,3 39 24 0,0
22.04.2017 15:00:00 9,6 4,1 12,9 11,8 6,8 7,4 31 17 61 33 W 1014,5 31 50 0,0
22.04.2017 14:00:00 8,8 3,2 11,2 9,5 6,5 7,4 33 18 56 30 W 1014,7 29 12 0,0
22.04.2017 13:00:00 7,5 2,6 8,6 7,9 6,3 7,4 34 18 56 30 W 1014,9 38 2 0,0
22.04.2017 12:00:00 6,4 1,9 6,6 6,4 6,2 7,4 33 18 51 28 W 1015,0 42 0 0,0
22.04.2017 11:00:00 6,3 1,1 6,5 6,6 6,0 7,3 28 15 48 26 WNW 1014,8 50 0 0,0
22.04.2017 10:00:00 5,9 0,0 6,3 6,7 5,8 7,3 35 19 56 30 WNW 1014,8 40 15 0,0
22.04.2017 09:00:00 6,0 0,5 6,4 5,5 5,7 7,3 34 19 63 34 WNW 1014,8 34 28 0,0
22.04.2017 08:00:00 5,5 0,4 5,1 3,9 5,8 7,3 34 19 59 32 WNW 1014,8 37 43 0,0
22.04.2017 07:00:00 5,0 -0,1 4,2 2,9 6,0 7,3 31 17 53 29 WNW 1014,7 33 35 0,0
22.04.2017 06:00:00 4,6 -0,2 3,3 2,8 6,2 7,3 33 18 55 30 WNW 1014,8 43 0 0,0
22.04.2017 05:00:00 4,6 0,1 3,2 2,9 6,5 7,3 29 16 64 35 WNW 1014,8 41 0 0,0
22.04.2017 04:00:00 5,0 -0,3 3,5 3,2 6,8 7,3 39 21 56 31 WNW 1014,9 44 0 0,0
22.04.2017 03:00:00 5,2 -0,5 3,8 3,5 7,2 7,3 37 20 63 34 WNW 1014,7 39 0 0,0
22.04.2017 02:00:00 5,6 0,8 4,2 4,2 7,6 7,3 34 18 59 32 WNW 1014,8 40 0 0,0

tt = temperatuur
td = dauwpunt
tt 5cm = temperatuur 5cm
tt -5cm = temperatuur -5cm
tt -20cm = temperatuur -20cm
tt -100cm = temperatuur -100cm
ff = windsnelheid
fx = windstoten
dd = windrichting
ppp = luchtdruk
vv = zicht
sd = Zonneschijnduur
rr = neerslag

Weerstations in de omgeving